Find Nilesat 102

NORAD ID: 26470 Int'l Des: 2000-046 Owner: NILE Country: EG operational
HEOCIRCULAR

Aktuelle Ansicht

3D-Globus wird geladen...

Über Nilesat 102

Beschreibung wird geladen...

Nächste Überflüge

Passes for default location (London). Set your location on the main map for personalized predictions.

Höhenverlauf

Loading altitude history...

Zweizeiliger Elementsatz

1 26470U 00046B 26148.67514446 -.00000147 00000-0 00000+0 0 9999
2 26470 9.3203 59.6560 0004764 41.5096 158.1540 0.98044336 44352
Epoch: 28. Mai 2026 • Age: 36 hours

Aktueller Status

Höhe 36404.3 km
Geschwindigkeit 3.05 km/s
Subsatellitenpunkt 2.09°N, 117.75°E
Startdatum 17. Aug. 2000
Alter 25.7 years
Typ other

Technische Details

Klassifizierung Payload
Masse 1800.00 kg
Trockenmasse 813.00 kg
Gesamtmasse 1800.00 kg
Länge 2.40 m
Durchmesser 1.70 m
Spannweite 21.50 m
Form Box + 2 Pan + Dish
Hersteller ASTT
Bus-Typ Eurostar 2000
Phasenstatus In Orbit
Besitzer/Staat NILE/EG

Most Searched